This demonstration page uses our WeatherBlox Daily Observations layout. Learn more.

Left ArrowRight Arrow

41.86663, -103.66717

Hourly Observations for November 22, 2020

Temp ( °F °C ) Dew Point ( °F °C ) Humidity (%) Winds ( mph kmh ) Pressure ( in mb ) Visibility ( mi km ) Precip ( " mm )
12:53 am 00:53 Clear 21 -6.1 7 -13.9 54 54 NW 8 13 30.48 1032 10 16 0.00 0.00
1:53 am 01:53 Clear 19 -7.2 6 -14.4 57 57 NW 5 7 30.49 1032 10 16 0.00 0.00
2:53 am 02:53 Clear 19 -7.2 6 -14.4 57 57 NW 7 11 30.48 1032 10 16 0.00 0.00
3:53 am 03:53 Clear 19 -7.2 6 -14.4 57 57 NNW 8 13 30.48 1032 10 16 0.00 0.00
4:53 am 04:53 Clear 18 -7.8 6 -14.4 59 59 WNW 7 11 30.52 1034 10 16 0.00 0.00
5:53 am 05:53 Clear 18 -7.8 6 -14.4 59 59 WNW 8 13 30.55 1035 10 16 0.00 0.00
6:53 am 06:53 Clear 18 -7.8 7 -13.9 62 62 NW 8 13 30.56 1035 10 16 0.00 0.00
7:53 am 07:53 Sunny 23 -5 9 -12.8 55 55 NNW 7 11 30.56 1035 10 16 0.00 0.00
8:53 am 08:53 Sunny 29 -1.7 11 -11.7 47 47 WNW 3 6 30.53 1034 10 16 0.00 0.00
9:53 am 09:53 Sunny 36 2.2 12 -11.1 37 37 WNW 5 7 30.51 1033 10 16 0.00 0.00
10:53 am 10:53 Sunny 40 4.4 12 -11.1 32 32 Calm 30.47 1032 10 16 0.00 0.00
11:53 am 11:53 Sunny 43 6.1 14 -10 31 31 S 7 11 30.41 1030 10 16 0.00 0.00
12:53 pm 12:53 Sunny 47 8.3 10 -12.2 22 22 SSE 10 17 30.35 1028 10 16 0.00 0.00
1:53 pm 13:53 Sunny 48 8.9 9 -12.8 20 20 SSE 12 19 30.31 1026 10 16 0.00 0.00
2:53 pm 14:53 Sunny 49 9.4 9 -12.8 20 20 SSE 13 20 30.28 1026 10 16 0.00 0.00
3:53 pm 15:53 Sunny 45 7.2 9 -12.8 23 23 S 9 15 30.28 1025 10 16 0.00 0.00
4:53 pm 16:53 Clear 39 3.9 9 -12.8 29 29 SSE 8 13 30.28 1025 10 16 0.00 0.00
5:53 pm 17:53 Clear 28 -2.2 9 -12.8 44 44 ESE 6 9 30.30 1026 10 16 0.00 0.00
6:53 pm 18:53 Clear 28 -2.2 10 -12.2 47 47 ESE 10 17 30.27 1025 10 16 0.00 0.00
7:53 pm 19:53 Clear 29 -1.7 10 -12.2 45 45 E 9 15 30.23 1024 10 16 0.00 0.00
8:53 pm 20:53 Clear 33 0.6 11 -11.7 40 40 ESE 14 22 30.16 1022 10 16 0.00 0.00
9:53 pm 21:53 Clear 30 -1.1 10 -12.2 43 43 ESE 9 15 30.12 1020 10 16 0.00 0.00
10:53 pm 22:53 Clear 32 0 11 -11.7 41 41 ESE 13 20 30.07 1018 10 16 0.00 0.00
11:53 pm 23:53 Clear 30 -1.1 12 -11.1 47 47 ESE 10 17 30.02 1017 10 16 0.00 0.00

Powered by AerisWeather